ECMWFFLT2_850_dewp_246.txt.gz
Dewpoint
-1 -2 -2 -3 -3 -3 -4 -5 -5 -7 -9 -8 -5 -2 0 2 3 4 5 5 6 7 7 8 8 9 11 13 13 12 12 12 11 11 11 11 11 11 11 11 10 9 8 7 6 6 6 6 6 6 5 7
-2 -3 -3 -4 -4 -4 -5 -6 -6 -7 -10 -10 -8 -4 -1 1 2 3 4 4 4 5 5 6 8 9 11 13 13 13 13 13 12 12 12 12 12 12 12 11 10 9 9 8 8 7 6 6 6 6 7 7
-3 -3 -4 -5 -5 -6 -6 -7 -8 -9 -11 -11 -10 -6 -3 -0 1 2 3 3 3 3 4 6 8 9 10 12 13 13 13 13 13 12 12 12 12 12 12 11 11 10 10 9 9 8 7 7 7 7 8 8
-3 -4 -5 -6 -7 -8 -9 -9 -10 -11 -12 -11 -10 -8 -5 -2 1 2 3 3 3 3 4 6 7 9 10 11 12 12 12 13 13 13 12 12 12 12 12 11 11 11 10 10 10 9 9 8 8 7 8 9
-4 -5 -6 -7 -8 -8 -8 -10 -11 -12 -12 -12 -9 -7 -5 -3 0 2 3 3 3 3 4 6 7 8 10 10 11 12 12 13 13 13 12 12 12 12 12 12 11 11 10 10 10 10 10 9 8 8 9 9
-4 -6 -7 -7 -7 -6 -6 -7 -9 -11 -11 -11 -9 -7 -4 -3 -1 1 3 3 3 3 4 7 8 9 9 10 11 11 11 12 12 12 12 12 12 12 12 11 11 11 11 10 10 10 10 9 9 9 9 10
-4 -5 -6 -7 -7 -6 -4 -5 -6 -8 -10 -9 -9 -8 -5 -3 -1 1 2 2 3 3 5 6 7 9 9 9 10 11 11 11 12 12 12 12 12 12 11 11 11 11 11 10 10 11 10 9 9 9 9 10
-4 -4 -6 -7 -7 -5 -3 -3 -4 -5 -7 -8 -8 -7 -5 -2 -1 1 2 2 2 3 4 5 6 7 8 9 9 9 10 11 11 12 12 12 11 11 11 11 11 11 11 11 11 10 9 7 8 8 9 9
-3 -4 -6 -7 -7 -5 -3 -2 -2 -3 -5 -6 -6 -6 -5 -2 -0 1 2 2 2 2 3 5 6 7 8 8 8 8 9 10 11 11 12 11 11 11 11 11 12 11 10 10 10 8 6 6 7 8 9 9
-4 -5 -6 -7 -6 -4 -3 -2 -2 -2 -3 -3 -4 -3 -3 -1 0 1 2 2 2 2 3 5 6 8 8 8 8 8 8 9 10 11 11 11 10 11 11 11 11 9 7 7 8 7 6 7 7 8 9 10
-5 -5 -6 -6 -5 -4 -3 -2 -2 -2 -1 -2 -1 -0 1 1 2 2 3 3 2 2 3 5 6 8 8 8 7 7 8 9 9 10 10 10 10 10 10 11 9 7 6 6 7 7 7 7 7 8 9 10
-5 -5 -5 -4 -4 -3 -2 -2 -1 0 0 0 1 2 3 4 4 4 4 4 3 3 4 5 7 8 8 8 7 7 8 9 9 10 10 10 10 10 10 10 9 8 7 5 6 7 7 7 8 9 9 9
-5 -5 -3 -2 -2 -1 -1 -1 0 2 2 2 3 3 3 4 5 5 5 5 4 4 5 6 7 7 8 7 7 8 8 8 9 9 9 9 10 10 9 10 10 9 8 7 7 7 8 8 9 9 9 9
-4 -4 -3 -1 0 1 1 1 1 2 3 3 3 3 3 4 5 5 5 5 5 5 5 6 6 6 7 7 7 8 8 8 9 9 9 9 9 9 9 9 9 9 9 8 8 8 9 9 9 9 9 9
-4 -4 -2 -1 0 1 2 2 3 3 3 3 3 3 3 4 4 5 5 5 5 5 5 5 5 6 6 6 7 8 8 8 8 9 8 8 8 8 9 9 9 9 9 9 9 9 9 9 9 9 9 9
-5 -4 -2 -1 -1 1 1 2 3 3 3 3 3 3 3 3 3 4 5 5 5 5 5 5 5 6 6 5 6 7 8 8 8 8 8 7 8 8 8 8 8 8 8 8 8 8 8 8 8 8 8 9
-6 -5 -4 -3 -2 -0 1 1 1 2 3 3 2 2 3 3 3 4 4 4 4 4 5 5 5 5 5 5 6 7 7 7 7 7 7 7 7 7 7 7 7 7 7 7 8 8 8 8 8 8 8 8
-10 -9 -9 -8 -6 -4 -2 -1 -1 0 1 2 2 2 2 2 3 4 4 4 4 4 4 5 5 4 5 5 5 6 6 6 6 6 6 6 6 6 6 6 6 6 7 7 7 7 7 7 8 8 8 8
-13 -13 -13 -13 -11 -10 -8 -7 -5 -3 -1 1 1 1 2 2 3 3 4 4 4 4 4 4 4 4 4 4 4 4 4 5 5 5 5 5 5 5 6 6 6 6 6 6 6 6 6 7 7 7 7 7
-14 -14 -14 -14 -13 -13 -13 -12 -10 -8 -5 -2 -1 0 1 2 2 3 3 4 4 4 4 4 4 4 4 4 4 4 4 4 4 4 5 5 5 5 5 5 5 5 5 5 5 6 6 6 6 6 6 6
-14 -14 -13 -13 -13 -13 -13 -13 -13 -12 -10 -7 -5 -2 -1 0 1 2 2 3 4 4 4 4 4 4 4 4 4 4 4 4 4 4 5 5 5 5 5 5 5 5 5 5 5 5 5 5 5 5 5 6
-14 -14 -13 -12 -12 -12 -12 -12 -12 -12 -12 -11 -10 -8 -5 -3 -2 -0 -0 0 1 2 3 3 3 4 4 4 4 4 4 4 4 4 4 4 5 5 5 5 5 5 4 4 4 4 4 4 4 4 4 5
-14 -13 -12 -12 -11 -11 -11 -11 -11 -11 -11 -11 -10 -10 -10 -8 -6 -4 -4 -4 -3 0 2 2 3 3 3 3 4 4 4 4 4 4 4 4 4 4 4 4 4 4 4 4 4 4 4 4 4 4 4 4
-13 -12 -12 -11 -11 -10 -10 -10 -11 -11 -11 -11 -11 -10 -10 -10 -10 -8 -7 -7 -5 -3 -1 1 1 2 3 3 3 3 4 4 4 4 4 4 4 4 4 4 4 4 4 4 4 3 3 3 3 3 3 3
-12 -11 -11 -11 -11 -11 -10 -11 -11 -11 -11 -11 -11 -11 -11 -11 -11 -11 -10 -9 -8 -8 -6 -3 -2 -0 1 2 2 3 3 3 3 3 4 4 4 4 4 4 3 3 3 3 3 3 3 3 3 2 2 2
-12 -12 -12 -11 -11 -11 -11 -11 -11 -11 -12 -12 -12 -12 -12 -12 -12 -12 -12 -12 -12 -12 -10 -9 -7 -5 -4 -2 -0 1 2 2 2 2 3 3 3 3 3 3 3 3 2 2 2 2 2 2 2 2 2 2
-13 -13 -12 -12 -12 -12 -12 -12 -12 -12 -12 -13 -13 -13 -13 -13 -13 -13 -13 -13 -13 -13 -13 -12 -11 -10 -8 -7 -5 -2 -1 0 1 1 2 2 2 2 2 2 2 2 2 1 1 1 1 1 1 1 1 0
-14 -14 -13 -13 -13 -13 -12 -12 -13 -13 -12 -13 -13 -13 -13 -13 -14 -14 -13 -14 -13 -14 -14 -14 -13 -12 -11 -10 -9 -7 -4 -3 -1 -0 0 1 1 1 1 1 1 1 1 1 1 0 -0 -0 -0 -0 -0 -1
-14 -14 -14 -14 -14 -14 -13 -13 -13 -13 -14 -14 -14 -14 -14 -14 -14 -14 -14 -14 -13 -14 -14 -14 -14 -14 -13 -12 -11 -9 -7 -6 -5 -3 -2 -1 -1 -0 -0 0 0 0 0 0 0 -0 -1 -1 -1 -1 -1 -1
-15 -15 -15 -15 -15 -14 -15 -15 -15 -15 -15 -15 -15 -15 -15 -15 -15 -15 -14 -14 -14 -14 -14 -13 -14 -14 -14 -13 -12 -11 -9 -7 -6 -5 -4 -4 -3 -2 -1 -1 -1 -0 -0 -0 -0 -1 -1 -1 -1 -2 -2 -2
-16 -16 -16 -16 -15 -15 -15 -16 -15 -15 -16 -15 -15 -15 -15 -15 -15 -15 -15 -15 -15 -15 -14 -14 -14 -15 -15 -14 -14 -12 -10 -9 -8 -7 -6 -5 -4 -3 -2 -2 -2 -1 -1 -1 -1 -1 -1 -2 -2 -2 -3 -3

ECMWFFLT2_850_dewp_252.txt.gz
Dewpoint
-4 -3 -3 -3 -3 -4 -5 -6 -7 -7 -8 -9 -9 -10 -10 -11 -11 -10 -10 -9 -9 -11 -12 -11 -8 -4 -1 1 2 2 3 4 6 7 9 11 12 12 12 12 12 11 11 12 12 11 11 11 9 9 8 8
-3 -3 -3 -3 -3 -4 -5 -6 -6 -7 -7 -8 -7 -7 -8 -8 -9 -10 -12 -11 -12 -12 -11 -10 -7 -5 -2 1 2 2 2 4 6 8 10 11 12 12 12 12 12 12 12 12 12 12 11 11 10 9 9 9
-3 -3 -3 -3 -4 -5 -6 -6 -6 -7 -8 -8 -7 -6 -5 -5 -5 -8 -11 -10 -12 -11 -9 -8 -5 -3 -1 2 3 3 3 4 7 8 10 11 11 12 12 12 12 12 12 12 12 12 12 12 11 10 10 10
-2 -3 -3 -4 -5 -5 -6 -7 -7 -7 -8 -8 -6 -5 -4 -3 -3 -6 -6 -4 -8 -9 -5 -4 -2 -1 1 2 3 4 4 5 7 8 9 10 11 12 12 12 12 12 12 12 12 12 12 12 11 10 10 10
-1 -3 -2 -3 -4 -4 -5 -7 -8 -8 -8 -8 -7 -5 -3 -3 -3 -4 -1 0 -4 -6 -2 -1 -0 1 1 3 4 5 5 6 8 9 9 10 11 11 11 12 12 12 12 12 12 11 11 12 11 11 10 10
-1 -2 -2 -3 -4 -4 -5 -7 -8 -8 -8 -9 -7 -5 -4 -3 -2 -2 0 2 -1 -2 1 1 2 2 2 4 5 6 6 6 7 8 8 9 9 10 11 11 12 12 12 12 11 11 11 11 11 11 10 10
-2 -2 -2 -3 -4 -5 -6 -6 -7 -7 -9 -8 -7 -6 -4 -3 -1 -0 1 2 2 3 3 3 3 3 3 4 6 7 7 7 7 7 8 8 8 9 9 10 11 11 11 12 11 11 11 11 11 11 10 10
-3 -3 -3 -5 -6 -6 -6 -6 -6 -6 -7 -7 -7 -6 -5 -4 -2 0 2 3 3 5 5 4 4 5 4 4 6 7 7 7 7 8 8 8 8 8 9 10 10 11 11 11 11 11 11 11 11 10 10 10
-3 -4 -5 -7 -6 -6 -6 -5 -5 -5 -4 -4 -5 -4 -4 -3 -2 -0 2 3 4 5 5 5 5 5 4 4 5 6 7 7 7 7 8 8 8 9 10 10 10 10 11 11 11 11 11 11 11 10 10 9
-4 -6 -7 -7 -6 -6 -5 -5 -5 -3 -3 -3 -3 -2 -2 -2 -2 -0 2 3 4 5 5 5 5 5 5 5 6 6 7 7 7 7 8 8 8 9 9 9 10 10 11 11 11 11 11 10 10 9 9 9
-6 -9 -9 -8 -7 -6 -5 -5 -5 -3 -3 -2 -2 -1 -1 -1 -1 -0 1 3 4 4 5 5 5 5 5 5 5 6 7 7 8 8 8 8 8 8 8 9 9 10 10 10 10 10 9 8 8 9 9 8
-9 -11 -11 -10 -9 -8 -7 -7 -6 -4 -3 -3 -2 -1 -0 0 0 0 1 3 3 4 4 4 4 5 5 5 5 5 6 7 7 8 8 7 8 8 9 9 9 9 10 9 9 8 7 7 7 8 8 8
-12 -13 -13 -13 -12 -12 -12 -11 -8 -6 -5 -4 -3 -2 -0 0 -0 -0 2 3 3 3 4 4 4 4 4 4 4 5 6 6 6 7 7 7 7 8 8 9 9 9 9 9 9 8 8 8 7 7 8 8
-13 -14 -15 -15 -15 -15 -15 -14 -12 -9 -7 -5 -4 -3 -1 -0 -0 1 2 3 3 3 4 4 4 4 4 4 4 4 5 6 6 6 7 7 7 7 8 8 8 9 9 9 9 8 8 8 8 8 8 8
-14 -15 -16 -16 -16 -16 -16 -15 -14 -13 -11 -8 -7 -4 -1 -0 0 1 2 3 3 3 3 4 4 4 3 3 3 4 4 5 5 6 6 6 6 7 7 7 8 8 8 8 8 8 8 8 8 8 7 7
-16 -17 -18 -17 -15 -15 -15 -15 -15 -14 -14 -12 -10 -6 -3 -1 -0 1 2 2 3 3 3 4 4 4 4 3 3 3 3 4 4 5 5 5 5 6 6 6 7 7 7 7 7 7 7 7 7 7 7 7
-19 -19 -19 -17 -15 -15 -15 -14 -14 -14 -14 -14 -12 -10 -7 -4 -2 -1 1 2 2 3 3 3 3 4 4 4 4 3 3 3 4 4 4 4 4 5 5 5 6 6 6 6 6 6 6 6 6 6 6 6
-21 -20 -19 -17 -15 -14 -14 -13 -13 -13 -13 -12 -12 -11 -10 -8 -6 -3 -1 -0 0 1 2 3 3 3 3 4 3 3 3 3 3 3 3 4 4 4 4 4 4 4 4 4 5 5 5 5 5 5 6 6
-22 -20 -18 -16 -15 -14 -13 -13 -12 -12 -12 -12 -11 -11 -11 -10 -8 -7 -5 -4 -2 -1 1 2 2 3 3 3 3 3 3 4 4 4 4 4 4 4 4 4 4 4 4 4 4 4 4 4 4 5 5 5
-21 -19 -17 -16 -14 -14 -13 -12 -12 -12 -12 -11 -11 -11 -11 -10 -10 -9 -8 -6 -5 -3 -1 -0 1 2 2 2 3 3 2 3 3 3 3 3 4 4 4 4 4 4 4 4 4 4 4 4 4 4 4 4
-18 -17 -16 -15 -14 -13 -12 -12 -12 -12 -12 -12 -12 -12 -12 -12 -12 -11 -11 -10 -9 -8 -6 -4 -3 -1 0 1 2 2 2 2 2 2 2 3 3 3 3 3 3 3 4 3 3 3 4 4 3 3 3 3
-16 -16 -15 -14 -13 -13 -12 -12 -12 -12 -13 -13 -13 -13 -13 -13 -13 -13 -13 -13 -13 -12 -11 -10 -9 -7 -5 -4 -2 -0 1 2 2 2 3 3 3 3 3 3 3 3 3 3 3 3 3 3 3 3 3 2
-15 -15 -14 -13 -13 -13 -13 -13 -13 -14 -14 -14 -14 -14 -14 -14 -14 -14 -14 -14 -14 -14 -14 -13 -13 -12 -11 -11 -9 -6 -4 -2 -1 -0 0 1 2 2 2 2 2 3 3 3 3 2 2 2 2 2 2 1
-15 -14 -14 -13 -13 -13 -14 -14 -14 -14 -14 -15 -15 -15 -15 -15 -15 -15 -15 -15 -15 -15 -15 -15 -15 -15 -14 -14 -14 -13 -11 -9 -8 -7 -5 -3 -2 -1 -0 0 1 2 2 1 1 1 1 1 1 1 0 0
-15 -15 -15 -14 -14 -15 -15 -15 -15 -15 -16 -16 -16 -16 -16 -17 -17 -17 -17 -16 -16 -16 -16 -16 -16 -15 -16 -16 -16 -16 -14 -13 -12 -10 -8 -7 -7 -6 -6 -5 -3 -2 -2 -3 -2 -1 -1 -0 -0 -1 -1 -1
-15 -15 -15 -15 -15 -16 -16 -16 -16 -16 -17 -17 -17 -17 -17 -18 -18 -18 -18 -17 -18 -18 -17 -17 -17 -17 -17 -16 -17 -16 -15 -14 -13 -12 -12 -10 -9 -9 -9 -8 -7 -6 -7 -6 -5 -4 -3 -1 -1 -2 -2 -1
-15 -16 -16 -16 -17 -17 -16 -17 -17 -17 -17 -17 -17 -17 -17 -18 -18 -18 -18 -18 -18 -18 -18 -18 -18 -17 -17 -17 -17 -17 -17 -16 -15 -16 -15 -14 -12 -10 -10 -9 -8 -8 -8 -8 -6 -5 -4 -2 -1 -2 -1 -2
-16 -16 -17 -17 -16 -16 -17 -17 -17 -17 -17 -17 -17 -17 -17 -17 -18 -18 -18 -18 -18 -18 -18 -17 -17 -17 -17 -17 -17 -17 -17 -17 -17 -17 -17 -15 -14 -12 -12 -11 -10 -8 -7 -7 -7 -6 -5 -3 -2 -1 -2 -4
-16 -17 -16 -17 -17 -16 -17 -17 -16 -16 -16 -17 -17 -17 -17 -17 -17 -17 -17 -17 -17 -17 -17 -17 -17 -16 -16 -16 -16 -16 -17 -16 -16 -16 -16 -15 -14 -12 -11 -11 -9 -8 -7 -7 -6 -5 -6 -5 -3 -3 -4 -5
-16 -17 -16 -16 -16 -16 -16 -16 -16 -16 -17 -17 -17 -17 -17 -17 -17 -17 -17 -17 -16 -16 -16 -16 -16 -16 -16 -16 -16 -16 -16 -16 -16 -16 -16 -15 -14 -12 -10 -9 -8 -7 -7 -7 -6 -5 -5 -5 -4 -4 -5 -5
-16 -16 -16 -16 -16 -16 -17 -17 -17 -17 -17 -17 -17 -17 -17 -17 -17 -16 -16 -16 -16 -16 -16 -16 -16 -15 -15 -15 -15 -15 -16 -16 -16 -15 -15 -14 -13 -12 -10 -9 -9 -8 -7 -7 -6 -5 -5 -5 -4 -4 -5 -5

ECMWFFLT2_850_dewp_258.txt.gz
Dewpoint
-4 -3 -3 -3 -3 -3 -4 -5 -5 -6 -7 -8 -8 -8 -8 -8 -8 -8 -7 -5 -3 -3 -4 -5 -6 -8 -8 2 2 -3 1 2 0 2 3 2 -2 -2 -1 -0 1 3 6 7 9 11 11 12 12 12 12 12
-4 -3 -3 -3 -3 -4 -4 -4 -5 -7 -8 -8 -8 -8 -8 -7 -7 -7 -6 -5 -3 -2 -2 -2 -3 -4 -2 3 3 -0 2 3 2 4 5 4 1 -0 1 2 2 4 6 7 9 10 11 12 12 11 11 11
-4 -4 -3 -3 -4 -4 -4 -5 -8 -9 -8 -8 -7 -7 -7 -7 -7 -7 -6 -6 -4 -2 -1 -1 -1 -1 1 3 3 2 3 4 5 5 6 6 4 3 3 3 4 5 7 8 9 11 11 11 11 11 11 11
-4 -4 -4 -4 -4 -4 -4 -7 -10 -10 -9 -9 -8 -7 -7 -7 -7 -7 -7 -7 -5 -3 -1 -1 1 2 3 3 3 3 4 5 5 6 7 6 6 5 5 5 6 6 7 8 9 10 11 11 11 11 11 11
-4 -4 -4 -4 -4 -4 -6 -10 -12 -11 -11 -11 -10 -8 -7 -7 -7 -7 -7 -7 -6 -4 -1 1 2 3 3 3 3 3 4 5 5 6 6 6 6 6 7 7 7 7 7 7 9 9 10 10 10 11 11 11
-4 -4 -4 -4 -3 -5 -8 -12 -13 -14 -14 -14 -13 -11 -10 -9 -8 -7 -6 -7 -7 -4 -0 2 3 3 3 3 4 4 4 4 5 6 6 6 6 7 7 7 7 8 8 7 8 8 9 9 10 10 10 11
-3 -3 -3 -3 -4 -7 -11 -13 -14 -16 -16 -16 -17 -15 -13 -13 -10 -8 -6 -6 -5 -4 -1 2 3 3 3 4 4 4 4 4 5 5 6 6 6 6 7 7 7 8 8 8 8 9 9 9 10 10 10 10
-2 -2 -3 -4 -6 -9 -13 -14 -15 -17 -18 -18 -18 -17 -16 -16 -13 -9 -7 -6 -4 -3 -2 0 2 3 3 3 3 4 4 4 4 5 5 6 6 6 6 7 7 7 8 9 9 9 9 9 9 10 10 10
-2 -2 -3 -5 -8 -11 -13 -16 -19 -20 -20 -20 -20 -18 -17 -17 -13 -10 -9 -7 -3 -1 -0 1 2 2 3 3 3 3 3 3 4 5 5 5 6 6 6 6 7 7 7 8 9 9 9 9 9 9 9 9
-3 -4 -5 -8 -10 -13 -16 -20 -22 -22 -20 -20 -20 -18 -17 -16 -14 -12 -12 -9 -4 -1 0 1 2 2 3 2 3 3 3 3 3 4 5 5 6 6 6 6 7 7 7 7 8 8 8 9 9 9 8 8
-5 -7 -9 -11 -14 -17 -22 -24 -23 -21 -19 -19 -18 -17 -17 -16 -16 -15 -15 -12 -6 -3 -0 2 2 2 3 2 2 2 2 3 3 4 4 5 5 6 6 6 6 6 7 7 7 8 8 8 8 8 8 8
-7 -9 -12 -15 -19 -23 -25 -24 -22 -20 -18 -17 -16 -16 -15 -16 -16 -15 -14 -14 -11 -6 -2 0 2 2 2 2 2 2 2 2 3 3 4 4 4 5 5 6 6 6 6 7 7 7 7 7 7 8 8 7
-10 -13 -18 -20 -24 -26 -24 -22 -21 -19 -17 -16 -16 -15 -15 -15 -15 -15 -14 -13 -13 -11 -8 -4 0 2 2 2 3 3 3 2 2 3 3 3 4 4 5 5 5 5 6 6 6 6 6 6 6 7 7 7
-14 -19 -22 -25 -26 -24 -22 -21 -19 -17 -17 -16 -15 -15 -14 -14 -14 -14 -13 -12 -12 -10 -8 -5 -1 1 1 2 3 3 2 2 2 3 3 3 3 3 4 4 5 5 5 5 5 5 5 5 6 6 6 6
-19 -23 -24 -25 -23 -22 -21 -18 -18 -17 -16 -16 -15 -15 -14 -14 -14 -13 -14 -12 -12 -11 -7 -5 -3 -1 0 -0 -1 1 1 2 3 3 3 3 3 3 3 3 4 4 4 4 4 4 4 5 5 5 5 5
-23 -25 -23 -24 -21 -20 -19 -17 -17 -16 -16 -16 -15 -16 -15 -15 -15 -14 -14 -14 -14 -13 -11 -9 -7 -4 -1 -1 -3 -2 -0 1 2 2 3 3 3 3 3 3 3 3 3 3 3 3 4 4 4 4 4 4
-23 -24 -22 -20 -20 -19 -18 -17 -17 -17 -17 -17 -16 -16 -16 -16 -16 -15 -15 -15 -15 -14 -14 -13 -13 -11 -7 -4 -4 -3 -1 0 1 1 2 2 2 2 3 3 3 3 3 3 2 2 3 3 3 3 3 3
-23 -22 -19 -18 -19 -19 -18 -18 -17 -17 -18 -18 -17 -17 -18 -18 -18 -18 -17 -17 -17 -16 -16 -16 -15 -15 -14 -12 -9 -6 -4 -2 -1 1 1 1 1 1 2 2 3 3 3 3 2 2 2 2 3 3 3 3
-22 -20 -18 -18 -19 -19 -19 -18 -18 -19 -19 -19 -19 -19 -19 -20 -20 -20 -20 -19 -19 -20 -18 -18 -18 -16 -16 -16 -15 -13 -12 -9 -6 -4 -2 -1 -0 -0 0 1 2 2 2 2 2 2 2 2 2 2 2 2
-21 -20 -19 -19 -19 -19 -19 -18 -19 -20 -20 -20 -19 -20 -20 -20 -21 -20 -21 -21 -20 -21 -21 -20 -20 -19 -18 -17 -17 -17 -17 -15 -13 -11 -11 -9 -7 -5 -4 -2 -1 0 1 1 1 1 1 1 1 1 1 1
-21 -21 -20 -20 -19 -20 -19 -19 -20 -20 -19 -19 -19 -19 -20 -20 -20 -20 -20 -20 -20 -21 -21 -22 -21 -20 -20 -19 -19 -18 -18 -18 -16 -16 -15 -14 -13 -12 -11 -7 -4 -2 -0 -0 0 0 -0 0 1 1 1 1
-21 -20 -21 -20 -20 -20 -19 -19 -19 -19 -19 -18 -19 -19 -19 -19 -19 -19 -20 -19 -20 -20 -20 -21 -20 -20 -20 -19 -19 -18 -18 -18 -18 -18 -17 -17 -16 -15 -15 -12 -7 -4 -2 -1 -0 -0 -1 -1 0 0 -0 -0
-20 -20 -20 -19 -20 -20 -18 -19 -19 -19 -19 -18 -19 -19 -19 -19 -19 -19 -19 -19 -19 -20 -20 -20 -20 -20 -20 -19 -19 -19 -18 -19 -19 -19 -19 -18 -17 -16 -15 -13 -10 -8 -5 -2 -0 -1 -1 -1 -1 -1 -1 -1
-18 -19 -19 -19 -20 -19 -19 -19 -19 -18 -18 -19 -19 -19 -19 -18 -19 -19 -19 -19 -19 -19 -19 -19 -19 -19 -19 -19 -18 -19 -18 -19 -19 -19 -19 -18 -17 -16 -14 -13 -11 -10 -8 -5 -2 -1 -1 -1 -2 -2 -1 -2
-18 -18 -18 -19 -20 -20 -20 -20 -19 -20 -19 -20 -20 -19 -19 -19 -19 -19 -19 -19 -19 -19 -19 -18 -19 -18 -18 -19 -18 -18 -18 -18 -18 -17 -18 -17 -17 -16 -15 -14 -12 -10 -9 -6 -4 -3 -3 -3 -3 -3 -2 -3
-18 -18 -19 -20 -20 -20 -21 -20 -20 -21 -20 -20 -20 -19 -20 -19 -20 -19 -19 -19 -19 -18 -18 -18 -18 -18 -18 -18 -18 -17 -17 -18 -17 -16 -16 -16 -16 -15 -16 -15 -13 -11 -9 -8 -6 -5 -6 -5 -4 -4 -2 -4
-18 -20 -20 -20 -21 -21 -21 -21 -21 -21 -21 -20 -19 -20 -20 -20 -20 -20 -19 -19 -18 -18 -18 -17 -17 -17 -17 -17 -16 -16 -16 -17 -16 -16 -16 -16 -16 -14 -14 -14 -12 -12 -10 -10 -8 -6 -6 -4 -4 -4 -3 -5
-19 -20 -21 -21 -21 -21 -21 -21 -20 -20 -21 -20 -20 -20 -20 -20 -20 -20 -19 -19 -18 -18 -17 -17 -17 -16 -16 -16 -16 -16 -16 -16 -16 -16 -16 -15 -15 -13 -13 -13 -13 -12 -10 -11 -10 -8 -7 -4 -4 -6 -6 -7
-19 -20 -20 -21 -21 -20 -20 -20 -20 -20 -20 -20 -20 -20 -20 -20 -20 -19 -19 -18 -18 -17 -17 -16 -16 -16 -15 -15 -15 -15 -15 -15 -15 -15 -15 -14 -14 -13 -12 -12 -11 -11 -10 -10 -10 -9 -9 -7 -7 -8 -8 -9
-19 -19 -19 -20 -21 -20 -20 -20 -19 -20 -20 -20 -20 -20 -20 -20 -20 -19 -19 -18 -18 -17 -16 -16 -16 -15 -15 -15 -15 -14 -14 -14 -13 -13 -14 -13 -13 -12 -11 -11 -10 -9 -9 -10 -9 -9 -9 -8 -8 -8 -8 -8
-18 -18 -18 -19 -20 -19 -19 -20 -20 -20 -20 -21 -21 -20 -20 -20 -20 -20 -19 -19 -18 -17 -16 -16 -16 -15 -15 -15 -14 -14 -14 -13 -13 -13 -13 -12 -11 -11 -10 -10 -9 -9 -9 -9 -8 -8 -8 -7 -7 -7 -7 -7

ECMWFFLT2_850_dewp_264.txt.gz
Dewpoint
-6 -6 -6 -6 -6 -5 -4 -4 -5 -5 -6 -8 -12 -19 -25 -26 -26 -25 -23 -20 -19 -17 -15 -13 -13 -13 -9 -1 2 3 4 4 3 4 3 3 4 3 3 3 3 4 4 4 3 3 3 3 4 5 6 6
-6 -6 -5 -5 -5 -5 -4 -4 -5 -6 -8 -12 -19 -25 -27 -26 -26 -24 -22 -20 -17 -15 -14 -13 -14 -12 -9 -2 2 3 4 3 3 3 3 3 3 3 3 3 4 4 4 3 4 5 5 4 5 6 7 8
-6 -5 -5 -5 -5 -5 -4 -5 -6 -8 -11 -18 -24 -27 -27 -26 -26 -23 -20 -19 -17 -16 -15 -15 -13 -11 -8 -3 1 3 3 3 2 3 3 3 3 2 3 4 4 4 4 4 4 5 6 6 6 7 7 8
-5 -5 -5 -5 -5 -5 -5 -6 -9 -12 -18 -24 -27 -28 -28 -26 -24 -23 -21 -18 -18 -17 -16 -15 -14 -10 -6 -3 -0 2 2 2 2 2 3 3 3 3 3 4 4 4 5 5 5 5 6 7 7 7 7 7
-5 -5 -5 -4 -4 -5 -8 -12 -17 -21 -25 -27 -27 -27 -26 -25 -23 -21 -20 -19 -18 -17 -17 -15 -13 -8 -4 -3 -2 1 1 2 1 2 3 3 3 3 4 4 4 4 4 5 5 5 6 7 7 7 7 7
-5 -4 -4 -4 -5 -8 -14 -21 -25 -27 -27 -26 -26 -25 -24 -23 -22 -21 -19 -19 -17 -17 -16 -14 -12 -9 -7 -5 -2 0 2 1 1 2 2 3 3 3 3 4 4 4 4 5 6 5 6 7 7 7 8 8
-5 -4 -4 -5 -8 -15 -23 -26 -26 -27 -25 -26 -24 -23 -23 -22 -21 -20 -19 -19 -17 -17 -16 -15 -13 -11 -10 -7 -5 -2 0 0 1 1 1 2 3 3 3 3 3 4 4 4 5 6 5 6 7 7 7 8
-4 -4 -5 -8 -14 -22 -26 -26 -26 -26 -26 -25 -25 -24 -23 -22 -21 -20 -19 -19 -18 -18 -17 -17 -15 -13 -11 -9 -9 -5 -3 -2 -0 0 -1 1 2 2 2 2 3 3 4 4 4 5 6 6 6 7 7 7
-4 -5 -7 -13 -21 -26 -26 -26 -26 -26 -27 -26 -25 -25 -24 -23 -22 -21 -21 -20 -20 -19 -19 -18 -17 -16 -14 -11 -9 -6 -5 -5 -4 -3 -1 2 1 2 2 2 2 3 4 4 4 5 5 6 6 6 6 6
-4 -7 -12 -20 -25 -26 -26 -26 -27 -26 -26 -26 -26 -25 -25 -25 -24 -24 -24 -23 -23 -22 -22 -20 -19 -18 -17 -14 -11 -8 -6 -7 -9 -6 -1 1 1 1 2 2 2 3 3 4 4 4 4 5 5 6 6 6
-6 -12 -19 -25 -26 -26 -27 -27 -26 -26 -26 -26 -25 -25 -25 -25 -25 -25 -25 -25 -24 -24 -25 -24 -22 -21 -20 -18 -16 -13 -9 -8 -10 -8 -4 -1 1 1 1 2 2 2 3 3 3 4 4 4 4 5 5 5
-12 -19 -25 -26 -26 -26 -27 -26 -26 -26 -25 -24 -24 -24 -24 -24 -24 -24 -24 -24 -23 -24 -24 -23 -24 -23 -21 -21 -19 -17 -15 -11 -10 -8 -6 -4 -2 -1 0 -0 0 2 2 3 3 3 3 3 4 4 4 5
-20 -24 -25 -25 -25 -26 -26 -26 -26 -25 -25 -24 -24 -24 -24 -24 -24 -23 -23 -23 -22 -22 -22 -22 -22 -22 -22 -23 -21 -20 -19 -17 -14 -10 -7 -4 -4 -2 -1 -1 -0 2 2 2 2 2 3 3 3 3 4 4
-24 -25 -26 -26 -25 -26 -26 -26 -26 -25 -24 -25 -25 -25 -25 -24 -24 -23 -23 -22 -23 -22 -22 -22 -22 -22 -22 -22 -22 -22 -21 -20 -19 -16 -12 -8 -5 -3 -1 -1 -0 1 1 2 2 2 2 2 2 2 3 3
-24 -26 -25 -25 -25 -25 -25 -25 -25 -24 -25 -25 -24 -25 -24 -24 -24 -23 -23 -23 -23 -22 -22 -22 -22 -22 -22 -22 -22 -22 -22 -21 -21 -20 -18 -14 -10 -7 -4 -1 -1 0 1 1 1 1 2 2 2 2 2 2
-23 -24 -23 -24 -24 -24 -24 -24 -24 -24 -24 -24 -24 -24 -24 -24 -23 -23 -23 -23 -23 -22 -22 -22 -22 -22 -22 -22 -22 -21 -21 -21 -21 -20 -19 -18 -15 -13 -8 -3 -2 -1 0 0 0 1 1 1 1 1 1 2
-22 -22 -23 -23 -23 -23 -24 -23 -23 -22 -21 -21 -21 -21 -22 -23 -23 -23 -23 -23 -23 -23 -22 -22 -22 -22 -22 -21 -21 -21 -21 -20 -20 -20 -20 -19 -18 -17 -13 -8 -6 -4 -2 -1 -1 -1 -0 -1 -0 0 0 1
-21 -21 -22 -23 -23 -23 -23 -22 -20 -19 -18 -18 -18 -19 -21 -21 -22 -22 -23 -22 -23 -22 -22 -22 -22 -22 -22 -21 -21 -21 -20 -20 -20 -19 -19 -19 -19 -18 -16 -14 -11 -8 -5 -3 -2 -2 -1 -2 -1 -1 -0 -0
-21 -21 -22 -23 -23 -23 -21 -18 -17 -17 -16 -16 -17 -19 -20 -21 -22 -22 -22 -23 -22 -23 -22 -22 -22 -22 -22 -21 -20 -20 -20 -20 -19 -19 -19 -19 -19 -18 -16 -15 -12 -8 -6 -4 -2 -2 -2 -2 -2 -1 -1 -1
-21 -22 -22 -22 -23 -22 -20 -17 -16 -16 -15 -16 -17 -18 -19 -20 -21 -21 -22 -22 -22 -22 -22 -23 -22 -22 -21 -21 -20 -20 -20 -20 -19 -18 -18 -18 -18 -18 -17 -15 -13 -9 -6 -4 -3 -2 -2 -3 -2 -2 -1 -1
-21 -22 -22 -22 -22 -21 -19 -17 -16 -16 -16 -17 -17 -17 -18 -18 -20 -21 -21 -21 -22 -22 -22 -23 -22 -22 -21 -21 -21 -20 -19 -19 -19 -19 -18 -18 -17 -17 -16 -15 -13 -9 -6 -4 -3 -3 -3 -3 -3 -2 -2 -2
-21 -22 -22 -21 -21 -20 -19 -17 -16 -16 -16 -17 -16 -16 -17 -18 -19 -20 -20 -20 -21 -21 -22 -22 -22 -22 -22 -21 -21 -20 -19 -19 -18 -19 -18 -17 -16 -16 -16 -14 -13 -10 -7 -5 -4 -3 -3 -3 -3 -3 -3 -3
-21 -22 -22 -21 -21 -20 -19 -18 -17 -16 -16 -16 -15 -15 -16 -17 -18 -19 -19 -19 -19 -20 -20 -21 -21 -22 -22 -22 -22 -20 -19 -19 -18 -18 -18 -17 -16 -15 -14 -13 -12 -11 -9 -6 -5 -4 -4 -3 -3 -3 -3 -3
-21 -21 -21 -21 -20 -20 -19 -18 -18 -16 -15 -15 -14 -14 -15 -16 -18 -18 -18 -18 -18 -18 -18 -19 -20 -20 -21 -22 -21 -21 -21 -20 -19 -18 -17 -16 -15 -14 -13 -12 -11 -10 -9 -8 -6 -5 -4 -4 -4 -4 -4 -4
-20 -20 -21 -21 -20 -20 -19 -18 -17 -17 -16 -16 -15 -14 -15 -16 -17 -17 -17 -16 -16 -16 -17 -17 -18 -19 -20 -21 -21 -21 -20 -19 -18 -17 -16 -15 -15 -14 -13 -12 -11 -10 -9 -8 -7 -7 -5 -4 -4 -5 -5 -4
-18 -19 -19 -19 -20 -20 -19 -17 -17 -17 -16 -16 -15 -15 -15 -16 -16 -16 -15 -15 -15 -15 -15 -16 -17 -18 -19 -20 -20 -20 -19 -18 -17 -16 -16 -15 -14 -13 -13 -12 -11 -10 -9 -9 -8 -7 -7 -5 -5 -6 -5 -5
-17 -17 -17 -18 -19 -19 -19 -18 -17 -17 -17 -16 -16 -16 -16 -16 -16 -15 -15 -14 -14 -14 -14 -15 -16 -17 -18 -19 -20 -20 -20 -19 -17 -16 -16 -15 -14 -13 -12 -11 -11 -11 -10 -9 -9 -8 -7 -6 -6 -6 -5 -6
-16 -17 -16 -16 -17 -18 -19 -19 -18 -18 -17 -16 -16 -16 -16 -16 -15 -14 -14 -14 -13 -13 -13 -14 -16 -17 -18 -19 -20 -20 -20 -20 -18 -17 -16 -15 -14 -13 -12 -11 -11 -11 -11 -11 -10 -9 -8 -8 -7 -6 -6 -8
-15 -16 -16 -16 -17 -17 -18 -19 -19 -18 -17 -17 -17 -16 -16 -15 -15 -14 -14 -13 -13 -13 -13 -14 -15 -17 -18 -19 -19 -20 -20 -20 -18 -17 -16 -15 -14 -14 -13 -12 -11 -11 -11 -11 -11 -10 -10 -9 -8 -8 -9 -9
-14 -15 -15 -15 -16 -16 -17 -18 -19 -19 -18 -17 -16 -16 -16 -15 -14 -14 -13 -13 -13 -13 -13 -13 -15 -16 -18 -19 -19 -20 -20 -19 -18 -17 -16 -15 -14 -13 -13 -13 -12 -11 -11 -11 -11 -11 -10 -10 -10 -9 -9 -9
-13 -14 -14 -15 -15 -16 -17 -18 -18 -19 -18 -18 -16 -16 -16 -15 -14 -13 -13 -13 -13 -13 -13 -13 -14 -16 -18 -19 -19 -20 -19 -19 -19 -17 -16 -15 -14 -14 -13 -13 -12 -12 -11 -11 -11 -11 -11 -11 -10 -10 -10 -9